Regional Weather Roundup
Issued by NWS Upton, NY

Current Version | Previous Version | Text Only | Print | Product List | Glossary On
Versions: 1 2 3 4 5 6 7 8 9 10 11 12 13 14 15 16 17 18 19 20 21 22 23 24 25 26 27 28 29 30 31 32 33 34 35 36 37 38 39 40 41 42 43 44 45 46 47
000
ASUS41 KOKX 312105
RWROKX

REGIONAL WEATHER ROUNDUP
NATIONAL WEATHER SERVICE NEW YORK NY
500 PM EDT THU JUL 31 2014

NOTE: "FAIR" INDICATES FEW OR NO CLOUDS BELOW 12,000 FEET WITH NO
SIGNIFICANT WEATHER AND/OR OBSTRUCTIONS TO VISIBILITY.

NYZ071-072-176-178-NJZ106-104-312200-
NEW YORK CITY METRO AREA


CITY           SKY/WX    TMP DP  RH WIND       PRES   REMARKS
CENTRAL PARK   PTSUNNY   78  63  59 VRB3      30.11S
LAGUARDIA APRT PTSUNNY   79  62  56 S14       30.08S
KENNEDY INTL   MOSUNNY   79  63  57 S20       30.10F
NEWARK/LIBERTY MOSUNNY   83  59  44 S14       30.06F
BRNX BOT. GARD   N/A     79  63  57 S14       30.10R
TETERBORO      MOSUNNY   86  61  42 SE8       30.06S
$$

NYZ177-179-078>081-312200-
LONG ISLAND NEW YORK

CITY           SKY/WX    TMP DP  RH WIND       PRES   REMARKS
FARMINGDALE    SUNNY     77  62  59 S17       30.11R
ISLIP          MOSUNNY   79  57  46 S13       30.10R
SHIRLEY        SUNNY     77  61  57 SW15      30.12S
WESTHAMPTON    SUNNY     77  63  61 S10G17    30.13S
MONTAUK POINT    N/A     76  64  66 VRB7      30.14S
$$

NYZ052-065-067-312200-
HUDSON VALLEY

CITY           SKY/WX    TMP DP  RH WIND       PRES   REMARKS
WHITE PLAINS   MOSUNNY   78  60  53 VRB6G16   30.09R
NEWBURGH       PTSUNNY   77  63  61 NW8       30.09R
MONTGOMERY     MOSUNNY   79  61  53 NW5       30.07S
POUGHKEEPSIE   CLOUDY    77  60  55 W6        30.06R
ALBANY         PTSUNNY   75  65  70 E9        30.05R
$$

NJZ001-105-106-008-010-013-015-019>022-104-312200-
NEW JERSEY

CITY           SKY/WX    TMP DP  RH WIND       PRES   REMARKS
NEWARK/LIBERTY MOSUNNY   83  59  44 S14       30.06F
TETERBORO      MOSUNNY   86  61  42 SE8       30.06S
CALDWELL       MOSUNNY   83  57  41 VRB5      30.08S
MORRISTOWN     MOSUNNY   84  57  39 W9G17     30.07F
SOMERVILLE     MOSUNNY   83  59  44 CALM      30.06S
LINDEN         MOCLDY    85  58  39 S5        30.09S
SUSSEX         PTSUNNY   82  60  47 SW6       30.08R
ANDOVER          N/A     80  57  45 SW6       30.09S
TRENTON        MOSUNNY   83  58  42 W10       30.08S
MILLVILLE      SUNNY     83  63  50 VRB6      30.10S
ATLANTIC CITY  SUNNY     81  63  54 S14       30.11R
WRIGHTSTOWN    SUNNY     84  61  46 SW13      30.06S
TOMS RIVER     MOSUNNY   84  61  45 SW7       30.09S
BELMAR         CLOUDY    79  63  57 SE9       30.09S
$$

PAZ047>061-062-071-312200-
EASTERN PENNSYLVANIA

CITY           SKY/WX    TMP DP  RH WIND       PRES   REMARKS
PHILADELPHIA   MOSUNNY   85  58  39 SW14      30.09S
ALLENTOWN      CLOUDY    78  58  49 SW7       30.09R
SCRANTON       PTSUNNY   80  55  42 W12G18    30.09S
$$

CTZ002-004>006-009-010-012-RIZ004-006-007-MAZ004-011-015-312200-
SOUTHERN NEW ENGLAND
 IN CT

CITY           SKY/WX    TMP DP  RH WIND       PRES   REMARKS
BRADLEY INTL   PTSUNNY   82  56  40 SW15G21   30.05F
HARTFORD       PTSUNNY   81  57  43 SW10      30.07S
DANBURY        MOSUNNY   78  59  51 S8        30.10R
WTRBRY/OXFORD  MOSUNNY   79  61  53 SW7G17    30.12S
BRIDGEPORT     NOT AVBL
MERIDEN        SUNNY     80  57  45 S7G18     30.08S
NEW HAVEN      MOSUNNY   82  63  52 S10       30.10S
CHESTER        FAIR      77  61  57 S14       30.12R
GROTON         SUNNY     73  65  75 S13       30.11S
WILLIMANTIC    SUNNY     80  55  42 S9G23     30.09S

 IN RI

CITY           SKY/WX    TMP DP  RH WIND       PRES   REMARKS
PROVIDENCE     MOSUNNY   79  56  45 S14       30.11S
BLOCK ISLAND   SUNNY     73  63  68 S13       30.14S
WESTERLY       SUNNY     77  62  59 S10       30.13S

 IN MA

CITY           SKY/WX    TMP DP  RH WIND       PRES   REMARKS
BOSTON         PTSUNNY   79  58  48 S16       30.06F
WORCESTER      MOSUNNY   76  55  48 S13       30.11S
WESTFIELD      MOSUNNY   81  58  45 S16       30.06S
PROVINCETOWN   SUNNY     75  61  60 S13G18    30.12S
NANTUCKET      SUNNY     72  64  76 S9        30.15S
$$

ANZ330-335-338-340-345-350-353-355-312200-
COASTAL MARINE OBSERVATIONS


STATION/POSITION TIME  SKY/WX   TEMP    WIND        PRES    VSBY  WAVE
                                AIR SEA DIR/SP/G                  HT/PER
                 (UTC)          (F)     (DEG/KT/KT) (MB)    (MI)  (FT/S)
NY HARB ENTRANCE NOT AVBL
4S FIRE IS       NOT AVBL
23SW MTP         2100            74 72              1019.9          3/ 8
HUDSON CANYON    2100            75 76  200/  8/ 10 1020.7          3/ 8
EXECUTION ROCKS  2100            77 71  200/ 14/ 17   N/A
WESTERN LI SOUND 2100            78     170/ 14/ 16   N/A           1
CENTRAL LI SOUND 2000            75 74  190/ 14/ 16   N/A           1/ 2
EASTERN LI SOUND 2000            74 69  180/  8/ 10   N/A
ROBBINS REEF     2100            75     160/ 18/ 20   N/A
$$


>>>>>>>>>>>>>>>>>>>>>>>>>>>> KEY <<<<<<<<<<<<<<<<<<<<<<<<<<<
>                                                          <
>     SKY/WX - SKY CONDITION/PRESENT WEATHER               <
>     TMP    - TEMPERATURE IN FAHRENHEIT                   <
>     DP     - DEWPOINT IN FAHRENHEIT                      <
>     RH     - RELATIVE HUMIDITY IN PERCENT                <
>     WIND   - DIRECTION AND SPEED IN MPH                  <
>     PRES   - MEAN SEA LEVEL PRESSURE IN INCHES OF HG     <
>     WCI    - WIND CHILL INDEX                            <
>     VSB    - VISIBILITY IN MILES                         <
>     HX     - HEAT INDEX                                  <
>     TC     - TEMPERATURE IN CELSIUS                      <
>     VRB    - VARIABLE WIND DIRECTION                     <
>                                                          <
>>>>>>>>>>>>>>>>>>>>>>>>>>>> KEY <<<<<<<<<<<<<<<<<<<<<<<<<<<





USA.gov is the U.S. government's official web portal to all federal, state and local government web resources and services.